Location: Berlin
(52.5170°N, 13.4000°E)
Time: 04:40:16
(UTC+02:00)

ISS - Visible Passes

Search period start: 25 July 2017 00:00
Search period end: 04 August 2017 00:00
Orbit: 400 x 408 km, 51.6° (Epoch: 25 July)

Date Brightness Start Highest point End Pass type
(mag) Time Alt. Az. Time Alt. Az. Time Alt. Az.
25 Jul -4.0 00:08:13 10° WSW 00:11:28 70° S 00:14:43 10° E visible
25 Jul -4.0 01:44:38 10° W 01:47:52 67° S 01:51:06 10° ESE visible
25 Jul -2.8 03:21:15 10° W 03:24:02 25° SSW 03:26:47 10° SSE visible
25 Jul -3.9 23:15:58 10° WSW 23:19:10 58° SSE 23:22:23 10° E visible
26 Jul -4.0 00:52:18 10° W 00:55:33 76° S 00:56:43 36° ESE visible
26 Jul -1.5 02:28:48 10° W 02:29:16 13° W 02:29:16 13° W visible
26 Jul -3.5 22:23:47 10° SW 22:26:54 44° SSE 22:30:01 10° E visible
26 Jul -4.0 23:59:58 10° W 00:03:14 78° S 00:05:18 20° E visible
27 Jul -2.2 01:36:25 10° W 01:37:54 23° W 01:37:54 23° W visible
27 Jul -4.0 23:07:38 10° WSW 23:10:53 73° S 23:14:08 10° E visible
28 Jul -3.7 00:44:03 10° W 00:46:54 56° SW 00:46:54 56° SW visible
28 Jul -3.9 22:15:19 10° WSW 22:18:33 62° SSE 22:21:47 10° E visible
28 Jul -4.0 23:51:41 10° W 23:54:56 73° S 23:56:02 38° ESE visible
29 Jul -1.3 01:28:13 10° W 01:28:38 13° W 01:28:38 13° W visible
29 Jul -4.0 22:59:19 10° W 23:02:34 78° S 23:05:11 15° E visible
30 Jul -2.7 00:35:46 10° W 00:37:49 31° WSW 00:37:49 31° WSW visible
30 Jul -3.9 22:06:56 10° W 22:10:12 76° S 22:13:27 10° E visible
30 Jul -3.8 23:43:21 10° W 23:46:35 58° SSW 23:47:01 51° SSE visible
31 Jul -3.9 22:50:57 10° W 22:54:12 70° S 22:56:15 21° ESE visible
01 Aug -1.9 00:27:32 10° W 00:28:51 19° WSW 00:28:51 19° WSW visible
01 Aug -3.9 21:58:32 10° W 22:01:48 77° S 22:05:04 10° E visible
01 Aug -3.3 23:35:01 10° W 23:38:06 40° SSW 23:38:06 40° SSW visible
02 Aug -3.6 22:42:34 10° W 22:45:45 53° SSW 22:47:21 25° SE visible
03 Aug -1.3 00:19:31 10° W 00:19:58 12° WSW 00:19:58 12° WSW visible
03 Aug -3.8 21:50:07 10° W 21:53:21 66° SSW 21:56:36 10° ESE visible
03 Aug -2.4 23:26:45 10° W 23:29:15 25° SW 23:29:15 25° SW visible
